Regional Weather Roundup
Issued by NWS

Home | Current Version | Previous Version | Text Only | Print | Product List | Glossary On
Versions: 1 2 3 4 5 6 7 8 9 10 11 12 13 14 15 16 17 18 19 20 21 22 23 24 25 26 27 28
000
ASUS42 KKEY 302310
RWRKEY

FLORIDA REGIONAL WEATHER ROUNDUP FOR THE FLORIDA KEYS
NATIONAL WEATHER SERVICE KEY WEST FLORIDA
700 PM EDT MON MAY 30 2016

...SOUTH FLORIDA AND THE KEYS...

CITY           SKY/WX    TMP DP  RH WIND       PRES   REMARKS
FORT MYERS     CLOUDY    74  71  91 SE6       29.97S
SW REGIONAL AP LGT RAIN  73  69  87 CALM      29.97S
NAPLES         CLOUDY    76  70  82 CALM      29.96F
MIAMI          PTSUNNY   82  68  62 E7        29.95R
WEST KENDALL   PTSUNNY   82  70  66 E8        29.94S
HOMESTEAD      PTSUNNY   82  72  70 NE3       29.94S
MARATHON       CLOUDY    85  71  63 NE7       29.93S HX  90
BOCA CHICA NAS MOSUNNY   83  72  69 E9        29.94S
KEY WEST INTL  MOSUNNY   84  74  71 E10       29.94S HX  91

...INTERNATIONAL WEATHER...

CITY           SKY/WX    TMP DP  RH WIND       PRES   REMARKS
NASSAU BAHAMAS PTSUNNY   82  73  74 NE7       29.97R
CANCUN MEXICO  PTSUNNY   84  75  74 E7        29.90S HX  92
COZUMEL MEXICO PTSUNNY   82  73  74 E14       29.87F

ADJACENT COASTAL WATERS...

STATION/POSITION TIME  SKY/WX   TEMP    WIND        PRES    WAVE
                                AIR SEA DIR/SP/G            HT/PER
                 (UTC)          (F)     (DEG/KT/KT) (MB)    (FT/S)
PULASKI SHOAL LI 2300            83      60/  5/  6 1014.2R
SAND KEY         2250            82     110/  8/ 11 1014.3R
SOMBRERO KEY     NOT AVBL
LONG KEY         2200            81 88   30/ 10/ 12 1013.9F
MOLASSES REEF    2200            82 84   80/  7/  7 1014.0F
FOWEY ROCKS      2300            81 83   70/  7/  8 1014.7R

$$




USA.gov is the U.S. government's official web portal to all federal, state and local government web resources and services.